Torna al catalogo

CZ-6A DEB

AttivoPO
NORAD 60988·DEBRIS·🇨🇳 China

Lanciato Aug 6, 2024 da Taiyuan Satellite Launch Center

Loading…

Prossimi Passaggi (prossime 24 ore)

TLE

AggiornatoSource: Space-Track

Epoca: Sep 13, 2026, 23:59 UTC

1 60988U 24140MP  26256.99935633  .00000360  00000-0  22765-3 0  9994
2 60988  89.0760 274.9505 0153425 358.0304   2.0249 13.96494953105105

Traccia CZ-6A DEB in tempo reale con AllMySat

Download on the App Store